Back to catalog

STARLINK-34544

AliveCommunicationsSSO
NORAD 64865·PAYLOAD·🇺🇸 United States

Launched Jul 19, 2025 from Vandenberg Space Force Base

Loading…

Next Passes (next 24 hours)

TLE

FreshSource: CelesTrak SupGP

Epoch: Sep 14, 2026, 20:42 UTC

1 64865C 25152Z   26257.86298611  .00008216  00000+0  25516-3 0  2572
2 64865  97.2847 108.5095 0001642  92.4535 162.2305 15.33420873    13

Track STARLINK-34544 in real time with AllMySat

Download on the App Store